Hawarden, United Kingdom

4:31 PM GMT on February 25, 2017 (GMT +0000)
Hawarden

Weather History for EGNR - October, 2011

Change the Weather History Date:

Tuesday, October 11, 2011

  Actual Average (EGGP) Record (EGGP)
Temperature  
Mean Temperature 63 °F -  
Max Temperature 66 °F 52 °F 68 °F (2001)
Min Temperature 60 °F 43 °F 41 °F (2000)
Degree Days  
Heating Degree Days 2    
Growing Degree Days 13 (Base 50)    
Moisture  
Dew Point 57 °F    
Average Humidity 77    
Maximum Humidity 90    
Minimum Humidity 68    
Precipitation  
Precipitation 0.02 in - - ()
Sea Level Pressure  
Sea Level Pressure 29.99 in    
Wind  
Wind Speed 10 mph ()    
Max Wind Speed 17 mph    
Max Gust Speed 25 mph    
Visibility 7.7 miles    
Events      
Averages and records for this station are not official NWS values.
T = Trace of Precipitation, MM = Missing Value Source: Averaged Metar Reports

Daily Weather History Graph

Daily Weather History Graph

Search for Another Location

Airport or City:

Trip Planner

Search our weather history database for the weather conditions in past years. The results will help you decide how hot, cold, wet, or windy it might be!

Date:

Astronomy

Oct. 11, 2011 Rise Set
Actual Time 7:30 AM BST 6:26 PM BST
Civil Twilight 6:55 AM BST 7:00 PM BST
Nautical Twilight 6:15 AM BST 7:40 PM BST
Astronomical Twilight 5:34 AM BST 8:21 PM BST
Moon 5:44 PM BST (10/11) 6:57 AM BST (10/11)
Length of Visible Light 12h 05m
Length of Day
10h 55m
Full, 100% of the Moon is Illuminated
Oct 11
Full
Oct 12
Full
Oct 20
Last Quarter
Oct 26
New
Nov 2
First Quarter

Hourly Weather History & Observations

Time (BST) Temp. Dew Point Humidity Pressure Visibility Wind Dir Wind Speed Gust Speed Precip Events Conditions
12:50 AM 62 °F 56 °F 73% 29.94 in 16 mi WSW 15.0 mph - -   Mostly Cloudy
3:50 AM 62 °F 56 °F 75% 29.90 in 19 mi WSW 17.3 mph - -   Mostly Cloudy
6:50 AM 62 °F 56 °F 76% 29.93 in 22 mi West 6.9 mph - -  
7:20 AM 62.6 °F 57.2 °F 82% 29.92 in 6.2 mi WSW 10.4 mph - N/A   Scattered Clouds
8:20 AM 62.6 °F 57.2 °F 82% 29.95 in 6.2 mi WSW 10.4 mph - N/A   Mostly Cloudy
8:50 AM 62.6 °F 57.2 °F 82% 29.95 in 6.2 mi WSW 9.2 mph - N/A   Mostly Cloudy
9:20 AM 62.6 °F 57.2 °F 82% 29.95 in 6.2 mi WSW 8.1 mph - N/A   Mostly Cloudy
9:50 AM 62 °F 57 °F 78% 29.98 in 25 mi SW 9.2 mph - -   Overcast
9:50 AM 62.6 °F 57.2 °F 82% 29.98 in 6.2 mi SW 10.4 mph - N/A   Mostly Cloudy
10:20 AM 62.6 °F 57.2 °F 82% 29.98 in 6.2 mi SW 9.2 mph - N/A   Mostly Cloudy
10:50 AM 62.6 °F 57.2 °F 82% 29.98 in 6.2 mi WSW 5.8 mph - N/A   Mostly Cloudy
11:20 AM 64.4 °F 59.0 °F 83% 29.98 in 6.2 mi West 10.4 mph - N/A   Mostly Cloudy
11:50 AM 64.4 °F 57.2 °F 77% 29.98 in 6.2 mi West 9.2 mph - N/A   Mostly Cloudy
12:50 PM 66.2 °F 57.2 °F 73% 30.01 in 6.2 mi WNW 11.5 mph 24.2 mph N/A   Mostly Cloudy
1:20 PM 66.2 °F 57.2 °F 73% 30.01 in 6.2 mi WNW 11.5 mph - N/A   Mostly Cloudy
1:50 PM 66.2 °F 57.2 °F 73% 30.01 in 6.2 mi WNW 12.7 mph - N/A   Mostly Cloudy
2:20 PM 66.2 °F 57.2 °F 73% 30.01 in 6.2 mi WNW 13.8 mph - N/A   Mostly Cloudy
2:50 PM 66.2 °F 57.2 °F 73% 30.01 in 6.2 mi West 13.8 mph - N/A   Mostly Cloudy
3:20 PM 66.2 °F 57.2 °F 73% 30.01 in 6.2 mi WNW 15.0 mph - N/A   Mostly Cloudy
3:50 PM 65 °F 57 °F 68% 30.02 in 22 mi WNW 16.1 mph - -   Mostly Cloudy
3:50 PM 66.2 °F 57.2 °F 73% 30.01 in 6.2 mi WNW 13.8 mph - N/A   Mostly Cloudy
4:20 PM 66.2 °F 57.2 °F 73% 30.01 in 6.2 mi WNW 13.8 mph 25.3 mph N/A   Mostly Cloudy
4:50 PM 64.4 °F 57.2 °F 77% 30.01 in 6.2 mi WNW 15.0 mph - N/A   Mostly Cloudy
5:20 PM 64.4 °F 57.2 °F 77% 30.04 in 6.2 mi WNW 11.5 mph - N/A   Mostly Cloudy
5:50 PM 66.2 °F 57.2 °F 73% 30.01 in 6.2 mi WNW 11.5 mph - N/A   Mostly Cloudy
6:20 PM 64.4 °F 57.2 °F 77% 30.04 in 6.2 mi West 5.8 mph - N/A   Mostly Cloudy
6:50 PM 63 °F 57 °F 76% 30.04 in 15 mi WSW 6.9 mph - -   Overcast
6:50 PM 62.6 °F 57.2 °F 82% 30.04 in 6.2 mi WSW 5.8 mph - N/A   Mostly Cloudy
9:50 PM 60 °F 58 °F 90% 30.06 in 13 mi SE 1.2 mph - -   Mostly Cloudy